Location: Hiekkapohja
(62.3333°N, 25.7833°E)
Time: 19:37:39
(UTC+00:00)

Cosmos 2082 Rocket - Pass Details

Date: 07 August 2020
Orbit: 835 x 852 km, 71.0° (Epoch: 21 September)

Event Time Altitude Azimuth Distance (km) Brightness Sun altitude
Rises 00:05:27 0° 278° (W) 3,414 5.2 -8.8°
Reaches altitude 10° 00:08:07 10° 287° (WNW) 2,476 4.6 -8.6°
Maximum altitude 00:13:19 36° 353° (N) 1,328 3.9 -8.4°
Drops below altitude 10° 00:18:31 10° 59° (ENE) 2,467 5.7 -8.1°
Sets 00:21:10 0° 69° (ENE) 3,400 6.2 -7.9°
